Zurück zum Katalog

ONEWEB-0037

AktivKommunikationPO
NORAD 45440·PAYLOAD·🇬🇧 United Kingdom

Gestartet Mar 21, 2020 von Baikonur Cosmodrome

Loading…

Nächste Überflüge (nächste 24 Stunden)

TLE

AktuellSource: CelesTrak SupGP

Epoche: Sep 14, 2026, 19:52 UTC

1 45440C 20020S   26257.82826806 -.00000334  00000+0 -94280-3 0  2577
2 45440  87.8995   3.2230 0001669 105.6400 354.1574 13.11422762    12

Verfolge ONEWEB-0037 in Echtzeit mit AllMySat

Download on the App Store